Regional Weather Roundup
Issued by NWS

Home | Current Version | Previous Version | Graphics & Text | Print | Product List | Glossary On
Versions: 1 2 3 4 5 6 7 8 9 10 11 12 13 14 15 16 17 18 19 20 21 22 23 24 25 26 27 28 29 30 31 32 33 34 35 36 37 38 39 40 41 42 43 44 45 46 47 48 49 50
000
ASUS43 KMKX 291600
RWRWI

WISCONSIN REGIONAL WEATHER ROUNDUP
NATIONAL WEATHER SERVICE MILWAUKEE/SULLIVAN WI
1100 AM CDT SAT APR 29 2017

NOTE: "FAIR" INDICATES FEW OR NO CLOUDS BELOW 12,000 FEET WITH NO
SIGNIFICANT WEATHER AND/OR OBSTRUCTIONS TO VISIBILITY.

WIZ001-002-006>008-014>016-023>028-291700-
NORTHWEST WISCONSIN

CITY           SKY/WX    TMP DP  RH WIND       PRES   REMARKS
SUPERIOR ARPT  MOSUNNY   45  24  43 NE8       30.37F
ASHLAND        SUNNY     45  29  53 N10       30.36F
HAYWARD        SUNNY     46  22  38 N10       30.32F
SIREN          SUNNY     46  21  36 E9        30.33S
CUMBERLAND     SUNNY     43  23  45 NE9       30.30F
RICE LAKE      SUNNY     44  24  44 N10G17    30.33S
CHETEK         NOT AVBL
LADYSMITH      SUNNY     45  25  45 N12G17    30.31F
EAU CLAIRE     SUNNY     47  23  38 NE12G23   30.28F
MENOMONIE      SUNNY     46  23  41 NE10      30.29F
NEW RICHMOND   SUNNY     46  22  38 E15       30.31F
OSCEOLA        SUNNY     46  26  44 E9        30.34F
$$

WIZ003>005-009-010-017-018-291700-
NORTH CENTRAL WISCONSIN

CITY           SKY/WX    TMP DP  RH WIND       PRES   REMARKS
MANITOWISH WTR SUNNY     41  21  45 NE10G16   30.31S
ARBOR VITAE    SUNNY     42  22  46 NE5       30.29F
WOODRUFF       SUNNY     42  22  46 NE5       30.29F
RHINELANDER    SUNNY     44  23  43 MISG      30.29S
EAGLE RIVER    SUNNY     41  20  43 NE13      30.28F
LAND O LAKES   SUNNY     40  18  41 NE9G18    30.31S WCI  34
PHILLIPS       SUNNY     41  24  49 N8        30.30F
TOMAHAWK       SUNNY     42  23  48 N7G18     30.29F
MEDFORD        CLOUDY    42  27  54 NE14      30.27F
MERRILL        SUNNY     43  26  50 NE9       30.28F
$$

WIZ029-030-035-036-043>047-291700-
CENTRAL WISCONSIN

CITY           SKY/WX    TMP DP  RH WIND       PRES   REMARKS
WAUSAU         SUNNY     44  26  49 E9G17     30.27S
MOSINEE        MOSUNNY   45  37  76 NE16G22   30.28S
MARSHFIELD     CLOUDY    44  26  49 NE10G20   30.26F
STEVENS POINT  PTSUNNY   42  24  49 E10G17    30.28S
WAUPACA        CLOUDY    46  26  45 N9        30.29R
WAUTOMA        PTSUNNY   44  27  51 MISG      30.28S
WISC RAPIDS    MOSUNNY   45  25  45 NE12G20   30.28S
CAMP DOUGLAS   NOT AVBL
$$

WIZ011>013-019>022-031-037>040-048>050-291700-
NORTHEAST WISCONSIN

CITY           SKY/WX    TMP DP  RH WIND       PRES   REMARKS
ANTIGO         SUNNY     42  26  52 NE13      30.27F
SHAWANO        CLOUDY    46  29  52 NE13      30.29S
OCONTO         NOT AVBL
STURGEON BAY   CLOUDY    42  28  57 N21       30.30R
GREEN BAY      MOSUNNY   43  32  65 NE15G24   30.30R
MANITOWOC      NOT AVBL
APPLETON       NOT AVBL
CLINTONVILLE   PTSUNNY   43  27  52 NE16      30.29R
OSHKOSH        MOSUNNY   43  30  60 NE15G22   30.27R
$$

WIZ032>034-041-042-053>061-291700-
SOUTHWEST WISCONSIN

CITY           SKY/WX    TMP DP  RH WIND       PRES   REMARKS
LA CROSSE      CLOUDY    46  27  47 E9        30.26R
SPARTA         CLOUDY    44  28  52 NE10G16   30.26S
VIROQUA        CLOUDY    42  31  64 NE14      30.23R
BOSCOBEL       CLOUDY    46  29  51 E9        30.22F
PRAIRIE DU CHI CLOUDY    44  29  54 NE13G21   30.19F
PLATTEVILLE    PTSUNNY   45  34  66 NE18G25   30.16R
$$

WIZ056-057-062-063-064-067-068-291700-
SOUTH CENTRAL WISCONSIN

CITY           SKY/WX    TMP DP  RH WIND       PRES   REMARKS
REEDSBURG      CLOUDY    42  28  58 NE13G18   30.24S
BARABOO/DELLS  CLOUDY    42  28  58 E14G21    30.24S
LONE ROCK      NOT AVBL
MINERAL POINT  PTSUNNY   45  32  61 NE18G25   30.16F
MADISON        CLOUDY    44  33  65 NE21G28   30.20F
MIDDLETON      CLOUDY    45  33  65 NE16G25   30.21F
WATERTOWN      CLOUDY    45  33  63 N12G18    30.22S
MONROE         CLOUDY    45  34  65 NE21G31   30.14F
JANESVILLE     SUNNY     46  34  61 NE12G23   30.17R
$$

WIZ051-052-058>065-066-070>072-291700-
SOUTHEAST WISCONSIN

CITY           SKY/WX    TMP DP  RH WIND       PRES   REMARKS
MILWAUKEE      CLOUDY    42  32  67 N21G35    30.22S
WAUKESHA       SUNNY     41  30  65 NE17G25   30.22S
MILWAUKEE/TIMM SUNNY     43  28  56 N21G28    30.24R
RACINE         CLOUDY    43  32  65 NE24G33   30.23R
KENOSHA        CLOUDY    43  33  68 NE22G30   30.20R
FOND DU LAC    MOSUNNY   45  30  55 NE14      30.27R
SHEBOYGAN      MOSUNNY   42  35  76 NE21      30.27R
WEST BEND      PTSUNNY   43  32  65 NE18G24   30.25R
JUNEAU         MOSUNNY   43  30  61 N14G22    30.25R
$$

LSZ147-162-291700-
LAKE SUPERIOR

STATION/POSITION TIME  TEMP    WIND        PRES    WAVE
                       AIR SEA DIR/SP/G            HT/PER
                 (UTC) (F)     (DEG/KT/KT) (MB)    (FT/S)
DEVILS ISLAND    1500   39      60/  2/  3 1029.6R
SAXON HARBOR     1540   38     340/  6/  8 1028.1R
$$

LMZ867-665-643>646-291700-
LAKE MICHIGAN

STATION/POSITION TIME  TEMP    WIND        PRES    WAVE
                       AIR SEA DIR/SP/G            HT/PER
                 (UTC) (F)     (DEG/KT/KT) (MB)    (FT/S)
CHAMBERS ISLAND  1540   38      20/ 15/ 17 1025.7S
N MID LAKE BUOY  1450   36 37  360/ 12/ 14 1027.2R   1/ 3
NORTHPORT PIER   1540   38     360/ 14/ 16 1025.7F
KEWAUNEE LAKESHO 1530   40      50/ 14/ 18 1024.8F
SHEBOYGAN LAKESH 1500   38      20/ 19/ 21 1025.1S
PORT WASHINGTON  1530   42      40/ 16/ 25 1025.4R
MILWAUKEE LAKESH 1530   39      20/ 25/ 27   N/A
S MID LAKE BUOY  1450   41 41   20/ 19/ 23 1021.7F   4/ 5
KENOSHA   LAKESH 1500   40      20/ 27/ 30 1021.7
$$

TC  - TEMPERATURE IN CELSIUS
VSB - VISIBILITY IN STATUTE MILES
WCI - WIND CHILL INDEX
HX  - HEAT INDEX





USA.gov is the U.S. government's official web portal to all federal, state and local government web resources and services.